Weather History for San Jose, Costa Rica

Change the Weather History Date:

Tuesday, September 24, 2013

  Actual Average Record
Temperature  
Mean Temperature 76 °F -  
Max Temperature 86 °F 78 °F 86 °F (2006)
Min Temperature 67 °F 64 °F 35 °F (2005)
Cooling Degree Days 12    
Growing Degree Days 26 (Base 50)    
Moisture  
Dew Point 67 °F    
Average Humidity 76    
Maximum Humidity 100    
Minimum Humidity 27    
Precipitation  
Precipitation 0.00 in 0.44 in - ()
Sea Level Pressure  
Sea Level Pressure 29.93 in    
Wind  
Wind Speed 6 mph ()    
Max Wind Speed 18 mph    
Max Gust Speed -    
Visibility 5.6 miles    
Events Fog , Rain , Thunderstorm    
Averages and records for this station are not official NWS values.
T = Trace of Precipitation, MM = Missing Value Source: Averaged Metar Reports

Daily Weather History Graph

Daily Weather History Graph

Search for Another Location

Airport:

Trip Planner

Search our weather history database for the weather conditions in past years. The results will help you decide how hot, cold, wet, or windy it might be!

Date:

Astronomy

Sep. 24, 2013 Rise Set
Actual Time 5:25 AM CST 5:31 PM CST
Civil Twilight 5:04 AM CST 5:52 PM CST
Nautical Twilight 4:40 AM CST 6:16 PM CST
Astronomical Twilight 4:16 AM CST 6:41 PM CST
Moon 9:42 PM CST (9/24) 9:46 AM CST (9/24)
Length of Visible Light 12h 47m
Length of Day
12h 05m
Waning Gibbous, 72% of the Moon is Illuminated
Sep 24
Waning Gibbous
Sep 26
Last Quarter
Oct 4
New
Oct 11
First Quarter
Oct 18
Full

Hourly Weather History & Observations

Time (CST) Temp. Heat Index Dew Point Humidity Pressure Visibility Wind Dir Wind Speed Gust Speed Precip Events Conditions
12:00 AM 70 °F - 69 °F 96% 29.85 in 2 mi NE 2.3 mph - - Fog Patches of Fog
12:00 AM 69.8 °F - 69.8 °F 100% 30.00 in 1.9 mi NE 2.3 mph - N/A   Scattered Clouds
1:00 AM 68.0 °F - 68.0 °F 100% 29.98 in 1.9 mi NNW 5.8 mph - N/A   Scattered Clouds
2:00 AM 68.0 °F - 66.2 °F 94% 29.98 in 6.2 mi ENE 3.5 mph - N/A   Scattered Clouds
3:00 AM 70 °F - 65 °F 79% 29.83 in 9 mi Calm Calm - -   Scattered Clouds
3:00 AM 69.8 °F - 66.2 °F 88% 29.98 in 6.2 mi East 3.5 mph - N/A   Partly Cloudy
4:00 AM 69.8 °F - 64.4 °F 83% 29.97 in - East 4.6 mph - N/A   Clear
5:00 AM 71.6 °F - 64.4 °F 78% 29.97 in - ESE 5.8 mph - N/A   Clear
6:00 AM 71 °F - 64 °F 71% 29.85 in 12 mi WNW 2.3 mph - -   Clear
6:00 AM 69.8 °F - 64.4 °F 83% 29.99 in - WNW 2.3 mph - N/A   Clear
7:00 AM 73.4 °F - 66.2 °F 78% 30.02 in 6.2 mi NW 10.4 mph - N/A   Scattered Clouds
8:00 AM 80.6 °F 82.7 °F 66.2 °F 61% 30.02 in 6.2 mi WSW 3.5 mph - N/A   Scattered Clouds
9:00 AM 83 °F - 63 °F 42% 29.82 in 12 mi WNW 9.2 mph - -   Scattered Clouds
9:00 AM 82.4 °F 83.4 °F 62.6 °F 51% 30.02 in 6.2 mi WNW 9.2 mph - N/A   Scattered Clouds
9:10 AM 82.4 °F 83.4 °F 62.6 °F 51% 30.02 in 6.2 mi East 11.5 mph - N/A   Scattered Clouds
10:00 AM 84.2 °F 84.4 °F 60.8 °F 45% 30.00 in 6.2 mi ENE 12.7 mph - N/A   Mostly Cloudy
11:00 AM 86.0 °F 86.6 °F 62.6 °F 45% 29.98 in 6.2 mi ESE 6.9 mph - N/A   Mostly Cloudy
12:00 PM 84 °F - 65 °F 44% 29.77 in 12 mi West 12.7 mph - -   Overcast
12:00 PM 84.2 °F 86.6 °F 66.2 °F 55% 29.95 in 6.2 mi West 12.7 mph - N/A   Mostly Cloudy
1:00 PM 80.6 °F 84.6 °F 71.6 °F 74% 29.94 in 6.2 mi WSW 17.3 mph - N/A   Mostly Cloudy
2:00 PM 80.6 °F 84.6 °F 71.6 °F 74% 29.91 in 6.2 mi WSW 18.4 mph - N/A   Mostly Cloudy
3:00 PM 77 °F - 71 °F 75% 29.75 in 12 mi West 13.8 mph - - Rain Light Rain
3:00 PM 77.0 °F - 69.8 °F 78% 29.91 in 6.2 mi West 13.8 mph - N/A Rain Light Rain
4:00 PM 75.2 °F - 71.6 °F 89% - 6.2 mi WSW 8.1 mph - N/A   Mostly Cloudy
4:25 PM 77.0 °F - 71.6 °F 83% 2.99 in 3.7 mi SW 8.1 mph - N/A Rain Rain
4:43 PM 73.4 °F - 71.6 °F 94% 29.91 in 0.9 mi WSW 6.9 mph - N/A Rain Heavy Rain
5:00 PM 73.4 °F - 71.6 °F 94% 29.91 in 1.2 mi WSW 8.1 mph - N/A Rain Rain
6:00 PM 73.4 °F - 71.6 °F 94% 29.93 in 1.9 mi West 4.6 mph - N/A Rain Rain
7:00 PM - - - N/A% 29.95 in 6.2 mi SW 2.3 mph - N/A Rain , Thunderstorm Light Rain
8:00 PM 73.4 °F - 71.6 °F 94% 29.95 in 6.2 mi North 2.3 mph - N/A Fog Patches of Fog
9:00 PM 72 °F - 72 °F 100% 29.75 in 3 mi WNW 2.3 mph - -   Mist
9:00 PM 73.4 °F - 71.6 °F 94% 29.94 in 3.1 mi WNW 2.3 mph - N/A   Mostly Cloudy
9:45 PM - - - N/A% - 3.1 mi West 4.6 mph - N/A Fog Mostly Cloudy
10:00 PM 71.6 °F - 35.6 °F 27% 29.96 in 4.3 mi WNW 2.3 mph - N/A Fog Patches of Fog
11:00 PM 71.6 °F - 69.8 °F 94% 29.95 in 1.9 mi SE 2.3 mph - N/A   Mostly Cloudy